Regional Weather Roundup
Issued by NWS Grand Forks, ND

Home | Current Version | Previous Version | Text Only | Print | Product List | Glossary Off
Versions: 1 2 3 4 5 6 7 8 9 10 11 12 13 14 15 16 17 18 19 20 21 22 23 24 25 26 27 28 29 30 31 32 33 34 35 36 37 38 39 40 41 42 43 44 45 46 47 48 49 50

000
ASUS43 KFGF 300931
RWRFGF
PRAIRIE TO PINES  WEATHER ROUNDUP
NATIONAL WEATHER SERVICE EASTERN NORTH DAKOTA/GRAND FORKS ND
400 AM CDT TUE SEP 30 2014

 **SATELLITE DATA USED TO AUGMENT SKY COVER AT AUTOMATED STATIONS**
 *****  WEATHER ACROSS EASTERN NORTH DAKOTA  *****

CITY           SKY/WX    TMP DP  RH WIND       PRES   REMARKS
GRAND FORKS    CLEAR     43  41  93 SE7       30.01F
GRAND FRKS AFB CLEAR     42  42  99 SE6       30.01F
GRAND FRKS NWS   N/A     41 N/A N/A E5          N/A
DEVILS LAKE    CLOUDY    48  41  76 SE17      29.92F
FARGO          CLEAR     46  42  86 SE8       30.01F
WAHPETON ARPT  PTSUNNY   43  39  87 SE13G21   30.01F
$$

 ***** WEATHER ACROSS CENTRAL AND WESTERN NORTH DAKOTA  *****

CITY           SKY/WX    TMP DP  RH WIND       PRES   REMARKS
BISMARCK       CLOUDY    54  50  86 E10       29.84F
MINOT          CLOUDY    51  46  83 E12       29.85F
JAMESTOWN      CLOUDY    48  45  89 SE13      29.92F
MINOT AFB      CLOUDY    51  49  94 SE12      29.84F
GARRISON         N/A     53  50  89 SE10      29.83F
WILLISTON      CLOUDY    54  50  86 SE12      29.78F
DICKINSON      LGT RAIN  52  50  93 SE13      29.76F
HETTINGER      LGT RAIN  52  51  97 E15       29.74F FOG
$$

 *****  OTHER AIRPORT OBSERVATIONS IN OUR AREA  *****

CITY           SKY/WX    TMP DP  RH WIND       PRES   REMARKS
WALHALLA       FAIR      39  39 100 SE7       30.00F
GRAFTON AIRPOR FAIR      41  41 100 SE9       30.01F
VALLEY CITY AR CLOUDY    46  46 100 SE17G23   29.95F
CANDO          CLOUDY    48  46  93 SE13      29.94F
CAVALIER APRT  FAIR      43  41  93 SE5       30.01F
GWINNER        CLOUDY    48  46  93 SE18      29.95F
SHEYENNE NWR     N/A     44  42  92 SE13      29.95S
ROLLA          CLOUDY    46  46 100 SE10      29.94F
 ***** THE ABOVE OBSERVATIONS ARE NON NWS ARE NOT QUALITY
       CONTROLLED AND MAY MIS-REPORT RAIN FOR SNOW...
$$

  *****  WEATHER ACROSS NORTHERN MINNESOTA  *****

CITY           SKY/WX    TMP DP  RH WIND       PRES   REMARKS
FLAG ISLAND    CLOUDY    45  43  93 SE13      30.08F
WARROAD        CLOUDY    43  39  87 SE10      30.08F
ROSEAU         CLOUDY    45  39  81 SE8       30.07S
HALLOCK        CLEAR     43  41  93 SE9       30.03S
THF RVR FALLS  CLEAR     41  39  93 E9        30.03F
BAUDETTE       CLOUDY    42  39  89 SE6       30.10F
WASKISH        CLOUDY    45  43  93 CALM      30.09S
CROOKSTON      CLEAR     39  37  93 SE3       30.03S
STEPHEN NDAWN    N/A     41  39  93 SE6         N/A
GREENBUSH NDAW   N/A     43  41  93 SE7         N/A
$$
  *****  WEATHER ACROSS CENTRAL AND WEST MINNESOTA  *****

CITY           SKY/WX    TMP DP  RH WIND       PRES   REMARKS
FOSSTON        MOCLDY    41  39  93 SE7       30.04F
BEMIDJI        CLOUDY    43  41  92 SE15      30.06F
PARK RAPIDS    CLOUDY    41  39  93 SE14      30.07F
ELBOW LAKE     CLOUDY    43  42  95 E14G20    30.02F
WADENA         CLOUDY    43  39  87 E12       30.05F
DETROIT LAKES  CLOUDY    43  41  93 SE16      30.04F
MOORHEAD       NOT AVBL
FERGUS FALLS   CLOUDY    43  39  87 SE15      30.04S
MORRIS MN      CLEAR     45  43  93 SE9       30.01F
STAPLES        CLOUDY    41  39  93 SE7       30.08F
$$
  *****  WEATHER ELSEWHERE ACROSS MINNESOTA  *****

CITY           SKY/WX    TMP DP  RH WIND       PRES   REMARKS
DULUTH         CLOUDY    42  38  85 E13       30.14F
INTRNTL FALLS  CLOUDY    42  40  92 SE6       30.12F
ELY            CLOUDY    39  37  93 S5        30.16R
CLOQUET        CLOUDY    41  37  87 E6        30.14S
WHEATON        CLOUDY    41  39  93 E13       30.02F
BRAINERD       CLOUDY    41  38  89 E6        30.11F
HIBBING        CLOUDY    42  39  89 SE8       30.14F
ALEXANDRIA     CLOUDY    42  40  92 E15       30.06F
SAINT CLOUD    CLOUDY    43  39  86 E7        30.10F
MINNEAPOLIS    CLOUDY    42  38  85 E12       30.10F
$$

  *****  WEATHER ACROSS SOUTH DAKOTA  *****

CITY           SKY/WX    TMP DP  RH WIND       PRES   REMARKS
SIOUX FALLS    MOCLDY    53  49  86 E14       29.92F
BROOKINGS      NOT AVBL
WATERTOWN      CLOUDY    49  45  86 SE15G22   29.93F
HURON          MOCLDY    54  50  86 SE12G20   29.85F
SISSETON         N/A     47  45  93 SE12      29.97F
ABERDEEN       CLOUDY    53  48  83 E7        29.88F
MITCHELL       CLOUDY    55  52  89 SE15G24   29.85F
PIERRE         LGT RAIN  59  56  89 E22G29    29.71F
MOBRIDGE       CLOUDY    56  51  84 SE16G28   29.76F
RAPID CITY     CLOUDY    53  52  96 N15       29.62F
$$

  *****  SOME WEATHER IN NEARBY STATES *****

CITY           SKY/WX    TMP DP  RH WIND       PRES   REMARKS
GLASGOW MT     CLOUDY    50  48  93 SE12      29.71F
GREAT FALLS MT CLOUDY    55  43  63 SW15      29.69F
CHEYENNE WY    CLOUDY    49  39  68 W20G26    29.78F
SCOTTSBLUFF NE LGT RAIN  50  48  93 W16G29    29.68F
OMAHA NE       PTCLDY    64  59  83 SE7       29.91F
DES MOINES IA  MOCLDY    58  54  86 E7        29.99F
DAVENPORT IA   NOT AVBL
CHICAGO IL     CLOUDY    51  46  83 N14       30.04S
EAU CLAIRE WI  CLOUDY    43  37  79 NE8       30.12F
LA CROSSE WI   CLOUDY    48  42  80 NE8       30.11S
$$

  *****  SOME NATIONAL WEATHER *****

CITY           SKY/WX    TMP DP  RH WIND       PRES   REMARKS
LA GUARDIA NY  CLOUDY    70  57  63 CALM      29.91F
RALEIGH NC     FOG       62  60  93 NW5       29.93S VSB<1/4
ATLANTA GA     CLOUDY    66  64  94 E6        29.94S
NEW ORLEANS LA PTCLDY    74  71  91 CALM      29.86F
OKLAHOMA CITY  PTCLDY    62  59  90 SE6       29.92F
ALBUQUERQUE NM CLEAR     54  36  50 NW5       30.05S
SALT LAKE CITY CLOUDY    52  48  86 S3        30.00R
LOS ANGELES CA CLEAR     65  62  90 E3        29.88R
BOISE ID       CLOUDY    53  51  93 CALM      29.93S
SEATTLE WA     MOCLDY    55  52  89 SE7       30.01S
$$

*** WEATHER ACROSS MANITOBA...SASKATCHEWAN AND ONTARIO ***
                ***ONTARIO***

CITY           SKY/WX    TMP DP  RH WIND       PRES   REMARKS
GERALDTON      CLEAR     27  27 100 NW2       30.19
THUNDER BAY    PTCLDY    36  34  93 N2        30.19S
SIOUX LOOKOUT  CLOUDY    37  37 100 S7        30.16R
TORONTO        MOCLDY    61  57  88 N3        29.86S
BIG TROUT LK   CLEAR     37  36  93 W8        30.08F
PICKLE LAKE    NOT AVBL
DRYDEN         CLOUDY    39  37  93 S6        30.14S
KENORA         CLOUDY    43  39  87 SE8       30.11F
$$
                *** MANITOBA***

CITY           SKY/WX    TMP DP  RH WIND       PRES   REMARKS
BRANDON        CLOUDY    48  45  87 SE8       29.94F
DAUPHIN        CLEAR     37  36  93 CALM      29.92F
ISLAND LAKE    CLOUDY    45  39  81 S8        30.03F
PILOT MOUND      N/A     43  41  93 SE9         N/A
THE PAS        CLEAR     37  37 100 S9        29.86F
THOMPSON       CLEAR     36  36 100 S2        29.92S
WINNIPEG       PTCLDY    43  41  93 SE12G20   30.04S
LYNN LAKE      CLOUDY    41  39  93 S7        29.78F
CHURCHILL      CLOUDY    39  39 100 E16       29.95R FOG
GILLAM         CLEAR     36  36 100 SW6       29.96S
$$
                ***SASKATCHEWAN***

CITY           SKY/WX    TMP DP  RH WIND       PRES   REMARKS
ESTEVAN        LGT RAIN  50  48  93 SE14      29.81F FOG
KINDERSLEY     MOCLDY    48  46  93 SE14      29.58
LLOYDMINSTER   LGT RAIN  50  45  81 S12       29.58S
PRINCE ALBERT  CLOUDY    52  45  76 S12       29.72F
REGINA         CLOUDY    48  46  93 SE15G21   29.77F
YORKTON        LGT RAIN N/A N/A N/A SE14        N/A  FOG
N. BATTLEFORD  CLOUDY    52  45  76 SE9       29.65F
LA RONGE       CLOUDY    52  43  71 S10       29.70F
SASKATOON      CLOUDY    52  45  76 S14       29.68F
SWIFT CURRENT  CLOUDY    50  48  93 S15       29.63S
$$
NOTE: THESE ARE AUTOMATED STATIONS WITH LIMITED QUALITY CONTROL
      "FAIR" INDICATES FEW OR NO CLOUDS BELOW 12,000 FEET WITH NO
      SIGNIFICANT WEATHER AND/OR OBSTRUCTIONS TO VISIBILITY.
      SKY/WX - SKY CONDITION AND SIGNIFICANT WEATHER.
      TMP - AIR TEMPERATURE.    DP   - DEWPOINT TEMPERATURE.
      RH  - RELATIVE HUMIDITY.  PRES - PRESSURE.
      HX  - HEAT INDEX.         WCI  - WIND CHILL INDEX.
$



USA.gov is the U.S. government's official web portal to all federal, state and local government web resources and services.